This is the latest recevied weather packets stored in our database for station/object KC4LZN. If no packets are shown the sender has not sent any weather packets the latest 10 day(s).
| Time | Temp. | Humidity | Pressure | Rain* | Wind** | Luminosity | Snow |
|---|---|---|---|---|---|---|---|
| 1777858948 | 20.56° C | 70% | 1017.9 hPa | 0 mm | - | 0 W/m² | - |
| 1777858646 | 20.56° C | 70% | 1017.8 hPa | 0 mm | - | 0 W/m² | - |
| 1777858344 | 20.56° C | 70% | 1017.7 hPa | 0 mm | - | 0 W/m² | - |
| 1777858040 | 20.56° C | 70% | 1017.6 hPa | 0 mm | - | 0 W/m² | - |
| 1777857738 | 20.56° C | 70% | 1017.7 hPa | 0 mm | - | 0 W/m² | - |
| 1777857435 | 20.56° C | 71% | 1017.6 hPa | 0 mm | - | 0 W/m² | - |
| 1777857131 | 20.56° C | 70% | 1017.5 hPa | 0 mm | - | 0 W/m² | - |
| 1777856827 | 20.56° C | 70% | 1017.5 hPa | 0 mm | - | 0 W/m² | - |
| 1777856523 | 20.56° C | 69% | 1017.5 hPa | 0 mm | - | 0 W/m² | - |
| 1777856220 | 20.56° C | 70% | 1017.5 hPa | 0 mm | - | 0 W/m² | - |
| 1777855917 | 21.11° C | 69% | 1017.5 hPa | 0 mm | - | 0 W/m² | - |
| 1777855615 | 21.11° C | 68% | 1017.4 hPa | 0 mm | - | 0 W/m² | - |
| 1777855311 | 21.11° C | 67% | 1017.5 hPa | 0 mm | - | 0 W/m² | - |
| 1777855008 | 21.11° C | 67% | 1017.6 hPa | 0 mm | - | 0 W/m² | - |
| 1777854705 | 21.11° C | 67% | 1017.5 hPa | 0 mm | - | 0 W/m² | - |
| 1777854401 | 21.67° C | 66% | 1017.6 hPa | 0 mm | - | 0 W/m² | - |
| 1777854099 | 21.67° C | 66% | 1017.2 hPa | 0 mm | - | 0 W/m² | - |
| 1777853797 | 21.67° C | 65% | 1017.2 hPa | 0 mm | - | 0 W/m² | - |
| 1777853492 | 21.67° C | 65% | 1017.3 hPa | 0 mm | - | 1 W/m² | - |
| 1777853190 | 21.67° C | 64% | 1017.3 hPa | 0 mm | - | 3 W/m² | - |
| 1777852887 | 21.67° C | 63% | 1017 hPa | 0 mm | - | 5 W/m² | - |
| 1777852585 | 22.22° C | 62% | 1017.1 hPa | 0 mm | - | 8 W/m² | - |
| 1777852281 | 22.22° C | 60% | 1016.9 hPa | 0 mm | - | 11 W/m² | - |
| 1777851980 | 22.22° C | 60% | 1016.8 hPa | 0 mm | - | 16 W/m² | - |
| 1777851678 | 22.78° C | 59% | 1016.9 hPa | 0 mm | - | 20 W/m² | - |
* Rain latest hour (hover to see other rain measurements)
** Current wind speed in m/s (hover to see current wind gust speed)